Location: Atherton
(17.2661°S, 145.4859°E)
Time: 04:44:33
(UTC+10:00)

Tiangong - Visible Passes

Search period start: 20 May 2025 00:00
Search period end: 30 May 2025 00:00
Orbit: 377 x 385 km, 41.5° (Epoch: 19 May)

Date Brightness Start Highest point End Pass type
(mag) Time Alt. Az. Time Alt. Az. Time Alt. Az.
20 May -0.2 19:21:13 10° SW 19:22:32 22° SSW 19:22:32 22° SSW visible
21 May -0.7 18:20:57 10° SSW 18:23:29 22° SE 18:25:54 10° E visible
21 May 1.3 19:57:43 10° W 19:58:08 12° W 19:58:08 12° W visible
22 May -1.5 18:56:18 10° WSW 18:59:24 55° NW 19:01:51 15° NE visible
24 May 0.6 18:31:43 10° W 18:34:13 22° NW 18:36:42 10° N visible
29 May 1.1 05:17:38 10° NNE 05:19:07 13° NE 05:20:35 10° ENE visible
